Time,TemperatureF,DewpointF,PressureIn,WindDirection,WindDirectionDegrees,WindSpeedMPH,WindSpeedGustMPH,Humidity,HourlyPrecipIn,Conditions,Clouds,dailyrainin,SoftwareType,DateUTC
2013-02-25 00:12:00,78.8,73.0,29.81,SE,131,12.0,16.0,82,0.00,,,0.00,weatherlink.com 1.10,2013-02-25 06:12:00,
2013-02-25 00:27:00,78.8,73.0,29.81,SSE,152,16.0,22.0,81,0.00,,,0.00,weatherlink.com 1.10,2013-02-25 06:27:00,
2013-02-25 00:42:00,78.8,73.0,29.80,SSE,150,5.0,20.0,81,0.00,,,0.00,weatherlink.com 1.10,2013-02-25 06:42:00,
2013-02-25 00:57:00,78.7,72.0,29.80,SE,126,11.0,20.0,80,0.00,,,0.00,weatherlink.com 1.10,2013-02-25 06:57:00,
2013-02-25 01:12:00,78.7,72.0,29.79,ESE,121,11.0,19.0,79,0.00,,,0.00,weatherlink.com 1.10,2013-02-25 07:12:00,
2013-02-25 01:28:00,78.7,72.0,29.79,SE,124,14.0,20.0,79,0.00,,,0.00,weatherlink.com 1.10,2013-02-25 07:28:00,
2013-02-25 01:42:00,78.5,72.0,29.78,SSE,162,4.0,18.0,80,0.00,,,0.00,weatherlink.com 1.10,2013-02-25 07:42:00,
2013-02-25 01:57:00,78.3,71.0,29.77,SE,146,10.0,16.0,79,0.00,,,0.00,weatherlink.com 1.10,2013-02-25 07:57:00,
2013-02-25 02:12:00,78.5,71.0,29.77,SSE,154,7.0,16.0,77,0.00,,,0.00,weatherlink.com 1.10,2013-02-25 08:12:00,
2013-02-25 02:27:00,78.5,70.0,29.77,ESE,117,15.0,19.0,75,0.00,,,0.00,weatherlink.com 1.10,2013-02-25 08:27:00,
2013-02-25 02:42:00,78.4,70.0,29.77,South,174,8.0,16.0,76,0.00,,,0.00,weatherlink.com 1.10,2013-02-25 08:42:00,
2013-02-25 02:57:00,78.5,70.0,29.77,SE,142,9.0,18.0,75,0.00,,,0.00,weatherlink.com 1.10,2013-02-25 08:57:00,
2013-02-25 03:12:00,78.5,71.0,29.77,South,180,9.0,17.0,78,0.00,,,0.00,weatherlink.com 1.10,2013-02-25 09:12:00,
2013-02-25 03:27:00,78.4,71.0,29.76,ESE,117,13.0,17.0,79,0.00,,,0.00,weatherlink.com 1.10,2013-02-25 09:27:00,
2013-02-25 03:42:00,78.3,71.0,29.76,SSE,148,9.0,19.0,78,0.00,,,0.00,weatherlink.com 1.10,2013-02-25 09:42:00,
2013-02-25 03:57:00,78.4,71.0,29.76,SE,124,7.0,14.0,79,0.00,,,0.00,weatherlink.com 1.10,2013-02-25 09:57:00,
2013-02-25 04:12:00,78.4,71.0,29.76,SE,128,9.0,14.0,79,0.00,,,0.00,weatherlink.com 1.10,2013-02-25 10:12:00,
2013-02-25 04:27:00,78.3,71.0,29.76,SSE,166,9.0,13.0,79,0.00,,,0.00,weatherlink.com 1.10,2013-02-25 10:27:00,
2013-02-25 04:42:00,78.2,71.0,29.76,ESE,111,3.0,10.0,79,0.00,,,0.00,weatherlink.com 1.10,2013-02-25 10:42:00,
2013-02-25 04:57:00,78.4,72.0,29.76,SSW,203,8.0,17.0,80,0.00,,,0.00,weatherlink.com 1.10,2013-02-25 10:57:00,
2013-02-25 05:12:00,78.7,72.0,29.76,SSE,150,8.0,17.0,81,0.00,,,0.00,weatherlink.com 1.10,2013-02-25 11:12:00,
2013-02-25 05:27:00,78.6,72.0,29.77,South,178,7.0,11.0,81,0.00,,,0.00,weatherlink.com 1.10,2013-02-25 11:27:00,
2013-02-25 05:42:00,78.4,72.0,29.78,SSW,195,5.0,10.0,80,0.00,,,0.00,weatherlink.com 1.10,2013-02-25 11:42:00,
2013-02-25 05:57:00,78.3,72.0,29.78,SSE,166,9.0,13.0,81,0.00,,,0.00,weatherlink.com 1.10,2013-02-25 11:57:00,
2013-02-25 06:12:00,78.0,71.0,29.79,SSE,162,7.0,13.0,80,0.00,,,0.00,weatherlink.com 1.10,2013-02-25 12:12:00,
2013-02-25 06:27:00,78.4,71.0,29.79,SE,138,9.0,10.0,79,0.00,,,0.00,weatherlink.com 1.10,2013-02-25 12:27:00,
2013-02-25 06:42:00,78.6,71.0,29.80,SSW,193,7.0,13.0,78,0.00,,,0.00,weatherlink.com 1.10,2013-02-25 12:42:00,
2013-02-25 06:57:00,79.3,72.0,29.80,SSE,158,6.0,16.0,77,0.00,,,0.00,weatherlink.com 1.10,2013-02-25 12:57:00,
2013-02-25 07:13:00,80.3,72.0,29.80,SSE,153,5.0,13.0,76,0.00,,,0.00,weatherlink.com 1.10,2013-02-25 13:13:00,
2013-02-25 07:28:00,80.6,72.0,29.79,SSE,166,12.0,18.0,75,0.00,,,0.00,weatherlink.com 1.10,2013-02-25 13:28:00,
2013-02-25 07:43:00,80.9,72.0,29.79,SE,136,9.0,19.0,74,0.00,,,0.00,weatherlink.com 1.10,2013-02-25 13:43:00,
2013-02-25 07:58:00,81.2,72.0,29.79,SE,142,8.0,20.0,73,0.00,,,0.00,weatherlink.com 1.10,2013-02-25 13:58:00,
2013-02-25 08:13:00,81.7,72.0,29.79,ESE,115,14.0,19.0,73,0.00,,,0.00,weatherlink.com 1.10,2013-02-25 14:13:00,
2013-02-25 08:28:00,81.8,72.0,29.80,SE,128,11.0,24.0,73,0.00,,,0.00,weatherlink.com 1.10,2013-02-25 14:28:00,
2013-02-25 08:43:00,82.5,72.0,29.79,SSE,159,8.0,17.0,71,0.00,,,0.00,weatherlink.com 1.10,2013-02-25 14:43:00,
2013-02-25 08:58:00,82.8,72.0,29.79,SSW,194,8.0,18.0,70,0.00,,,0.00,weatherlink.com 1.10,2013-02-25 14:58:00,
2013-02-25 09:13:00,82.6,72.0,29.79,SE,141,11.0,26.0,71,0.00,,,0.00,weatherlink.com 1.10,2013-02-25 15:13:00,
2013-02-25 09:28:00,82.9,73.0,29.79,South,170,7.0,21.0,71,0.00,,,0.00,weatherlink.com 1.10,2013-02-25 15:28:00,
2013-02-25 09:43:00,82.7,72.0,29.79,SSE,159,10.0,29.0,71,0.00,,,0.00,weatherlink.com 1.10,2013-02-25 15:43:00,
2013-02-25 09:58:00,83.2,73.0,29.78,East,101,14.0,21.0,71,0.00,,,0.00,weatherlink.com 1.10,2013-02-25 15:58:00,
2013-02-25 10:13:00,83.4,73.0,29.78,SSW,193,16.0,26.0,71,0.00,,,0.00,weatherlink.com 1.10,2013-02-25 16:13:00,
2013-02-25 10:28:00,83.7,73.0,29.77,South,191,6.0,24.0,70,0.00,,,0.00,weatherlink.com 1.10,2013-02-25 16:28:00,
2013-02-25 10:43:00,84.1,73.0,29.78,South,170,11.0,22.0,69,0.00,,,0.00,weatherlink.com 1.10,2013-02-25 16:43:00,
2013-02-25 10:58:00,84.3,73.0,29.77,SSE,166,10.0,22.0,69,0.00,,,0.00,weatherlink.com 1.10,2013-02-25 16:58:00,
2013-02-25 11:13:00,84.3,74.0,29.77,South,183,12.0,17.0,70,0.00,,,0.00,weatherlink.com 1.10,2013-02-25 17:13:00,
2013-02-25 11:28:00,84.4,73.0,29.76,SW,233,5.0,19.0,68,0.00,,,0.00,weatherlink.com 1.10,2013-02-25 17:28:00,
2013-02-25 11:43:00,84.9,73.0,29.75,SSE,156,10.0,19.0,68,0.00,,,0.00,weatherlink.com 1.10,2013-02-25 17:43:00,
2013-02-25 11:58:00,84.8,74.0,29.75,South,172,9.0,25.0,69,0.00,,,0.00,weatherlink.com 1.10,2013-02-25 17:58:00,
2013-02-25 12:13:00,84.8,74.0,29.74,SSW,209,8.0,26.0,69,0.00,,,0.00,weatherlink.com 1.10,2013-02-25 18:13:00,
2013-02-25 12:28:00,84.7,73.0,29.75,SE,128,14.0,23.0,69,0.00,,,0.00,weatherlink.com 1.10,2013-02-25 18:28:00,
2013-02-25 12:43:00,84.0,74.0,29.73,South,180,14.0,24.0,71,0.00,,,0.00,weatherlink.com 1.10,2013-02-25 18:43:00,
2013-02-25 12:58:00,84.8,74.0,29.72,SSE,156,12.0,23.0,69,0.00,,,0.00,weatherlink.com 1.10,2013-02-25 18:58:00,
2013-02-25 13:13:00,84.7,73.0,29.72,SSE,149,13.0,26.0,69,0.00,,,0.00,weatherlink.com 1.10,2013-02-25 19:13:00,
2013-02-25 13:28:00,84.7,74.0,29.72,SSE,167,10.0,23.0,71,0.00,,,0.00,weatherlink.com 1.10,2013-02-25 19:28:00,
2013-02-25 13:43:00,84.7,74.0,29.71,SW,221,11.0,19.0,71,0.00,,,0.00,weatherlink.com 1.10,2013-02-25 19:43:00,
2013-02-25 13:58:00,85.0,74.0,29.70,SW,218,8.0,20.0,70,0.00,,,0.00,weatherlink.com 1.10,2013-02-25 19:58:00,
2013-02-25 14:13:00,84.7,74.0,29.70,ESE,123,11.0,17.0,70,0.00,,,0.00,weatherlink.com 1.10,2013-02-25 20:13:00,
2013-02-25 14:29:00,84.4,74.0,29.71,SSE,150,10.0,19.0,71,0.00,,,0.00,weatherlink.com 1.10,2013-02-25 20:29:00,
2013-02-25 14:43:00,84.0,75.0,29.70,SSE,148,4.0,18.0,73,0.00,,,0.00,weatherlink.com 1.10,2013-02-25 20:43:00,
2013-02-25 14:58:00,84.1,74.0,29.71,SE,145,10.0,19.0,72,0.00,,,0.00,weatherlink.com 1.10,2013-02-25 20:58:00,
2013-02-25 15:13:00,84.2,74.0,29.70,SE,135,11.0,16.0,71,0.00,,,0.00,weatherlink.com 1.10,2013-02-25 21:13:00,
2013-02-25 15:28:00,84.0,74.0,29.70,SE,134,7.0,19.0,72,0.00,,,0.00,weatherlink.com 1.10,2013-02-25 21:28:00,
2013-02-25 15:43:00,82.9,74.0,29.69,SE,129,10.0,23.0,75,0.00,,,0.00,weatherlink.com 1.10,2013-02-25 21:43:00,
2013-02-25 15:58:00,82.9,75.0,29.70,SSE,152,9.0,18.0,76,0.00,,,0.00,weatherlink.com 1.10,2013-02-25 21:58:00,
2013-02-25 16:13:00,81.9,74.0,29.70,SE,142,9.0,19.0,77,0.00,,,0.00,weatherlink.com 1.10,2013-02-25 22:13:00,
2013-02-25 16:28:00,81.5,74.0,29.70,SE,131,12.0,17.0,77,0.00,,,0.00,weatherlink.com 1.10,2013-02-25 22:28:00,
2013-02-25 16:43:00,81.6,74.0,29.70,SE,127,11.0,18.0,77,0.00,,,0.00,weatherlink.com 1.10,2013-02-25 22:43:00,
2013-02-25 16:58:00,81.4,74.0,29.70,SSE,152,6.0,18.0,77,0.00,,,0.00,weatherlink.com 1.10,2013-02-25 22:58:00,
2013-02-25 17:14:00,81.2,73.0,29.71,SSE,162,8.0,15.0,77,0.00,,,0.00,weatherlink.com 1.10,2013-02-25 23:14:00,
2013-02-25 17:28:00,81.0,74.0,29.71,SSE,155,13.0,19.0,78,0.00,,,0.00,weatherlink.com 1.10,2013-02-25 23:28:00,
2013-02-25 17:43:00,80.7,73.0,29.71,SE,136,8.0,17.0,78,0.00,,,0.00,weatherlink.com 1.10,2013-02-25 23:43:00,
2013-02-25 17:58:00,80.7,73.0,29.71,South,172,8.0,17.0,78,0.00,,,0.00,weatherlink.com 1.10,2013-02-25 23:58:00,
2013-02-25 18:29:00,80.4,73.0,29.72,SE,134,8.0,19.0,78,0.00,,,0.00,weatherlink.com 1.10,2013-02-26 00:29:00,
2013-02-25 18:44:00,80.3,73.0,29.72,East,91,8.0,17.0,78,0.00,,,0.00,weatherlink.com 1.10,2013-02-26 00:44:00,
2013-02-25 18:59:00,80.4,73.0,29.73,SSE,162,11.0,17.0,78,0.00,,,0.00,weatherlink.com 1.10,2013-02-26 00:59:00,
2013-02-25 19:14:00,80.4,74.0,29.73,SE,142,9.0,18.0,80,0.00,,,0.00,weatherlink.com 1.10,2013-02-26 01:14:00,
2013-02-25 19:29:00,80.3,74.0,29.74,SSE,165,5.0,18.0,80,0.00,,,0.00,weatherlink.com 1.10,2013-02-26 01:29:00,
2013-02-25 19:44:00,80.2,73.0,29.75,SE,139,8.0,16.0,79,0.00,,,0.00,weatherlink.com 1.10,2013-02-26 01:44:00,
2013-02-25 19:59:00,80.1,73.0,29.75,SSE,158,4.0,14.0,78,0.00,,,0.00,weatherlink.com 1.10,2013-02-26 01:59:00,
2013-02-25 20:14:00,80.2,73.0,29.76,SE,128,5.0,13.0,79,0.00,,,0.00,weatherlink.com 1.10,2013-02-26 02:14:00,
2013-02-25 20:29:00,80.1,73.0,29.77,SSE,156,7.0,15.0,78,0.00,,,0.00,weatherlink.com 1.10,2013-02-26 02:29:00,
2013-02-25 20:44:00,80.1,73.0,29.77,SE,132,6.0,14.0,79,0.00,,,0.00,weatherlink.com 1.10,2013-02-26 02:44:00,
2013-02-25 20:59:00,80.1,73.0,29.78,SSE,155,4.0,13.0,79,0.00,,,0.00,weatherlink.com 1.10,2013-02-26 02:59:00,
2013-02-25 21:14:00,80.0,73.0,29.77,SSE,160,10.0,17.0,79,0.00,,,0.00,weatherlink.com 1.10,2013-02-26 03:14:00,
2013-02-25 21:29:00,80.0,73.0,29.77,SSW,200,9.0,13.0,79,0.00,,,0.00,weatherlink.com 1.10,2013-02-26 03:29:00,
2013-02-25 21:44:00,79.9,73.0,29.77,SE,145,8.0,14.0,80,0.00,,,0.00,weatherlink.com 1.10,2013-02-26 03:44:00,
2013-02-25 21:59:00,79.8,73.0,29.77,SSE,159,8.0,14.0,79,0.00,,,0.00,weatherlink.com 1.10,2013-02-26 03:59:00,
2013-02-25 22:14:00,79.9,73.0,29.77,SE,128,6.0,12.0,80,0.00,,,0.00,weatherlink.com 1.10,2013-02-26 04:14:00,
2013-02-25 22:29:00,79.9,74.0,29.78,South,179,8.0,14.0,81,0.00,,,0.00,weatherlink.com 1.10,2013-02-26 04:29:00,
2013-02-25 22:44:00,79.7,73.0,29.78,SSW,205,5.0,12.0,80,0.00,,,0.00,weatherlink.com 1.10,2013-02-26 04:44:00,
2013-02-25 22:59:00,79.7,73.0,29.78,SW,236,5.0,18.0,79,0.00,,,0.00,weatherlink.com 1.10,2013-02-26 04:59:00,
2013-02-25 23:14:00,79.6,73.0,29.77,SSE,165,8.0,14.0,80,0.00,,,0.00,weatherlink.com 1.10,2013-02-26 05:14:00,
2013-02-25 23:29:00,79.6,73.0,29.77,SE,134,9.0,14.0,80,0.00,,,0.00,weatherlink.com 1.10,2013-02-26 05:29:00,
2013-02-25 23:44:00,79.5,73.0,29.77,SE,134,11.0,15.0,80,0.00,,,0.00,weatherlink.com 1.10,2013-02-26 05:44:00,
2013-02-25 23:59:00,79.6,73.0,29.77,SE,129,9.0,15.0,80,0.00,,,0.00,weatherlink.com 1.10,2013-02-26 05:59:00,